﻿測定場所 (Monitoring sites),日付 (Measurement date),時間 (Measurement time),線量率 最大値 (max) μGy/h,線量率 最小値 (min) μGy/h,線量率 平均値 (average) μGy/h,
江戸川 (Edogawa),2021-05-16,23:01～24:00,0.0469,0.0408,0.0435,
江戸川 (Edogawa),2021-05-16,22:01～23:00,0.0471,0.0410,0.0442,
江戸川 (Edogawa),2021-05-16,21:01～22:00,0.0481,0.0425,0.0454,
江戸川 (Edogawa),2021-05-16,20:01～21:00,0.0475,0.0416,0.0449,
江戸川 (Edogawa),2021-05-16,19:01～20:00,0.0471,0.0418,0.0446,
江戸川 (Edogawa),2021-05-16,18:01～19:00,0.0498,0.0429,0.0451,
江戸川 (Edogawa),2021-05-16,17:01～18:00,0.0474,0.0417,0.0447,
江戸川 (Edogawa),2021-05-16,16:01～17:00,0.0491,0.0407,0.0442,
江戸川 (Edogawa),2021-05-16,15:01～16:00,0.0483,0.0421,0.0456,
江戸川 (Edogawa),2021-05-16,14:01～15:00,0.0500,0.0428,0.0456,
江戸川 (Edogawa),2021-05-16,13:01～14:00,0.0474,0.0415,0.0442,
江戸川 (Edogawa),2021-05-16,12:01～13:00,0.0489,0.0414,0.0457,
江戸川 (Edogawa),2021-05-16,11:01～12:00,0.0506,0.0400,0.0450,
江戸川 (Edogawa),2021-05-16,10:01～11:00,0.0452,0.0388,0.0423,
江戸川 (Edogawa),2021-05-16,09:01～10:00,0.0467,0.0398,0.0431,
江戸川 (Edogawa),2021-05-16,08:01～09:00,0.0483,0.0403,0.0432,
江戸川 (Edogawa),2021-05-16,07:01～08:00,0.0466,0.0412,0.0435,
江戸川 (Edogawa),2021-05-16,06:01～07:00,0.0471,0.0386,0.0436,
江戸川 (Edogawa),2021-05-16,05:01～06:00,0.0473,0.0410,0.0436,
江戸川 (Edogawa),2021-05-16,04:01～05:00,0.0476,0.0410,0.0436,
江戸川 (Edogawa),2021-05-16,03:01～04:00,0.0498,0.0394,0.0434,
江戸川 (Edogawa),2021-05-16,02:01～03:00,0.0473,0.0405,0.0437,
江戸川 (Edogawa),2021-05-16,01:01～02:00,0.0471,0.0395,0.0434,
江戸川 (Edogawa),2021-05-16,00:01～01:00,0.0474,0.0394,0.0436,
江戸川 (Edogawa),2021-05-15,23:01～24:00,0.0479,0.0405,0.0436,
江戸川 (Edogawa),2021-05-15,22:01～23:00,0.0465,0.0403,0.0434,
江戸川 (Edogawa),2021-05-15,21:01～22:00,0.0470,0.0402,0.0434,
江戸川 (Edogawa),2021-05-15,20:01～21:00,0.0461,0.0396,0.0432,
江戸川 (Edogawa),2021-05-15,19:01～20:00,0.0459,0.0405,0.0433,
江戸川 (Edogawa),2021-05-15,18:01～19:00,0.0479,0.0400,0.0437,
江戸川 (Edogawa),2021-05-15,17:01～18:00,0.0471,0.0408,0.0433,
江戸川 (Edogawa),2021-05-15,16:01～17:00,0.0473,0.0409,0.0433,
江戸川 (Edogawa),2021-05-15,15:01～16:00,0.0463,0.0406,0.0429,
江戸川 (Edogawa),2021-05-15,14:01～15:00,0.0468,0.0401,0.0430,
江戸川 (Edogawa),2021-05-15,13:01～14:00,0.0463,0.0404,0.0432,
江戸川 (Edogawa),2021-05-15,12:01～13:00,0.0465,0.0404,0.0430,
江戸川 (Edogawa),2021-05-15,11:01～12:00,0.0458,0.0395,0.0426,
江戸川 (Edogawa),2021-05-15,10:01～11:00,0.0456,0.0404,0.0425,
江戸川 (Edogawa),2021-05-15,09:01～10:00,0.0469,0.0395,0.0426,
江戸川 (Edogawa),2021-05-15,08:01～09:00,0.0456,0.0400,0.0433,
江戸川 (Edogawa),2021-05-15,07:01～08:00,0.0455,0.0400,0.0432,
江戸川 (Edogawa),2021-05-15,06:01～07:00,0.0478,0.0400,0.0435,
江戸川 (Edogawa),2021-05-15,05:01～06:00,0.0469,0.0405,0.0432,
江戸川 (Edogawa),2021-05-15,04:01～05:00,0.0460,0.0395,0.0431,
江戸川 (Edogawa),2021-05-15,03:01～04:00,0.0458,0.0410,0.0430,
江戸川 (Edogawa),2021-05-15,02:01～03:00,0.0461,0.0404,0.0429,
江戸川 (Edogawa),2021-05-15,01:01～02:00,0.0451,0.0388,0.0427,
江戸川 (Edogawa),2021-05-15,00:01～01:00,0.0467,0.0400,0.0427,
江戸川 (Edogawa),2021-05-14,23:01～24:00,0.0465,0.0407,0.0430,
江戸川 (Edogawa),2021-05-14,22:01～23:00,0.0456,0.0397,0.0428,
江戸川 (Edogawa),2021-05-14,21:01～22:00,0.0458,0.0405,0.0431,
江戸川 (Edogawa),2021-05-14,20:01～21:00,0.0469,0.0396,0.0429,
江戸川 (Edogawa),2021-05-14,19:01～20:00,0.0466,0.0405,0.0427,
江戸川 (Edogawa),2021-05-14,18:01～19:00,0.0459,0.0401,0.0430,
江戸川 (Edogawa),2021-05-14,17:01～18:00,0.0454,0.0414,0.0432,
江戸川 (Edogawa),2021-05-14,16:01～17:00,0.0460,0.0400,0.0430,
江戸川 (Edogawa),2021-05-14,15:01～16:00,0.0466,0.0406,0.0431,
江戸川 (Edogawa),2021-05-14,14:01～15:00,0.0462,0.0394,0.0429,
江戸川 (Edogawa),2021-05-14,13:01～14:00,0.0455,0.0405,0.0430,
江戸川 (Edogawa),2021-05-14,12:01～13:00,0.0457,0.0398,0.0430,
江戸川 (Edogawa),2021-05-14,11:01～12:00,0.0467,0.0398,0.0431,
江戸川 (Edogawa),2021-05-14,10:01～11:00,0.0458,0.0393,0.0425,
江戸川 (Edogawa),2021-05-14,09:01～10:00,0.0462,0.0392,0.0423,
江戸川 (Edogawa),2021-05-14,08:01～09:00,0.0444,0.0397,0.0423,
江戸川 (Edogawa),2021-05-14,07:01～08:00,0.0461,0.0395,0.0426,
江戸川 (Edogawa),2021-05-14,06:01～07:00,0.0453,0.0392,0.0423,
江戸川 (Edogawa),2021-05-14,05:01～06:00,0.0453,0.0398,0.0424,
江戸川 (Edogawa),2021-05-14,04:01～05:00,0.0454,0.0389,0.0425,
江戸川 (Edogawa),2021-05-14,03:01～04:00,0.0454,0.0395,0.0424,
江戸川 (Edogawa),2021-05-14,02:01～03:00,0.0456,0.0394,0.0424,
江戸川 (Edogawa),2021-05-14,01:01～02:00,0.0452,0.0389,0.0416,
江戸川 (Edogawa),2021-05-14,00:01～01:00,0.0465,0.0397,0.0422,
江戸川 (Edogawa),2021-05-13,23:01～24:00,0.0445,0.0398,0.0422,
江戸川 (Edogawa),2021-05-13,22:01～23:00,0.0477,0.0409,0.0438,
江戸川 (Edogawa),2021-05-13,21:01～22:00,0.0504,0.0431,0.0468,
江戸川 (Edogawa),2021-05-13,20:01～21:00,0.0509,0.0425,0.0470,
江戸川 (Edogawa),2021-05-13,19:01～20:00,0.0487,0.0423,0.0454,
江戸川 (Edogawa),2021-05-13,18:01～19:00,0.0487,0.0410,0.0446,
江戸川 (Edogawa),2021-05-13,17:01～18:00,0.0496,0.0416,0.0454,
江戸川 (Edogawa),2021-05-13,16:01～17:00,0.0535,0.0463,0.0499,
江戸川 (Edogawa),2021-05-13,15:01～16:00,0.0540,0.0475,0.0511,
江戸川 (Edogawa),2021-05-13,14:01～15:00,0.0534,0.0471,0.0503,
江戸川 (Edogawa),2021-05-13,13:01～14:00,0.0508,0.0426,0.0471,
江戸川 (Edogawa),2021-05-13,12:01～13:00,0.0508,0.0433,0.0468,
江戸川 (Edogawa),2021-05-13,11:01～12:00,0.0528,0.0466,0.0493,
江戸川 (Edogawa),2021-05-13,10:01～11:00,0.0504,0.0420,0.0453,
江戸川 (Edogawa),2021-05-13,09:01～10:00,0.0478,0.0414,0.0442,
江戸川 (Edogawa),2021-05-13,08:01～09:00,0.0470,0.0415,0.0450,
江戸川 (Edogawa),2021-05-13,07:01～08:00,0.0482,0.0421,0.0455,
江戸川 (Edogawa),2021-05-13,06:01～07:00,0.0495,0.0432,0.0464,
江戸川 (Edogawa),2021-05-13,05:01～06:00,0.0508,0.0441,0.0478,
江戸川 (Edogawa),2021-05-13,04:01～05:00,0.0525,0.0452,0.0494,
江戸川 (Edogawa),2021-05-13,03:01～04:00,0.0527,0.0447,0.0480,
江戸川 (Edogawa),2021-05-13,02:01～03:00,0.0497,0.0413,0.0457,
江戸川 (Edogawa),2021-05-13,01:01～02:00,0.0471,0.0411,0.0446,
江戸川 (Edogawa),2021-05-13,00:01～01:00,0.0470,0.0407,0.0441,
江戸川 (Edogawa),2021-05-12,23:01～24:00,0.0470,0.0397,0.0443,
江戸川 (Edogawa),2021-05-12,22:01～23:00,0.0483,0.0413,0.0439,
江戸川 (Edogawa),2021-05-12,21:01～22:00,0.0468,0.0414,0.0440,
江戸川 (Edogawa),2021-05-12,20:01～21:00,0.0462,0.0401,0.0436,
江戸川 (Edogawa),2021-05-12,19:01～20:00,0.0469,0.0414,0.0439,
江戸川 (Edogawa),2021-05-12,18:01～19:00,0.0475,0.0412,0.0440,
江戸川 (Edogawa),2021-05-12,17:01～18:00,0.0472,0.0396,0.0438,
江戸川 (Edogawa),2021-05-12,16:01～17:00,0.0473,0.0405,0.0439,
江戸川 (Edogawa),2021-05-12,15:01～16:00,0.0470,0.0401,0.0438,
江戸川 (Edogawa),2021-05-12,14:01～15:00,0.0482,0.0408,0.0438,
江戸川 (Edogawa),2021-05-12,13:01～14:00,0.0471,0.0409,0.0438,
江戸川 (Edogawa),2021-05-12,12:01～13:00,0.0468,0.0393,0.0439,
江戸川 (Edogawa),2021-05-12,11:01～12:00,0.0462,0.0396,0.0437,
江戸川 (Edogawa),2021-05-12,10:01～11:00,0.0458,0.0409,0.0435,
江戸川 (Edogawa),2021-05-12,09:01～10:00,0.0468,0.0410,0.0441,
江戸川 (Edogawa),2021-05-12,08:01～09:00,0.0476,0.0404,0.0439,
江戸川 (Edogawa),2021-05-12,07:01～08:00,0.0476,0.0409,0.0439,
江戸川 (Edogawa),2021-05-12,06:01～07:00,0.0467,0.0413,0.0441,
江戸川 (Edogawa),2021-05-12,05:01～06:00,0.0473,0.0404,0.0442,
江戸川 (Edogawa),2021-05-12,04:01～05:00,0.0477,0.0408,0.0439,
江戸川 (Edogawa),2021-05-12,03:01～04:00,0.0473,0.0409,0.0440,
江戸川 (Edogawa),2021-05-12,02:01～03:00,0.0472,0.0415,0.0444,
江戸川 (Edogawa),2021-05-12,01:01～02:00,0.0483,0.0413,0.0442,
江戸川 (Edogawa),2021-05-12,00:01～01:00,0.0493,0.0413,0.0442,
江戸川 (Edogawa),2021-05-11,23:01～24:00,0.0468,0.0402,0.0435,
江戸川 (Edogawa),2021-05-11,22:01～23:00,0.0482,0.0407,0.0439,
江戸川 (Edogawa),2021-05-11,21:01～22:00,0.0473,0.0408,0.0442,
江戸川 (Edogawa),2021-05-11,20:01～21:00,0.0467,0.0408,0.0441,
江戸川 (Edogawa),2021-05-11,19:01～20:00,0.0453,0.0403,0.0434,
江戸川 (Edogawa),2021-05-11,18:01～19:00,0.0473,0.0411,0.0437,
江戸川 (Edogawa),2021-05-11,17:01～18:00,0.0474,0.0418,0.0441,
江戸川 (Edogawa),2021-05-11,16:01～17:00,0.0475,0.0411,0.0441,
江戸川 (Edogawa),2021-05-11,15:01～16:00,0.0476,0.0420,0.0442,
江戸川 (Edogawa),2021-05-11,14:01～15:00,0.0467,0.0400,0.0439,
江戸川 (Edogawa),2021-05-11,13:01～14:00,0.0464,0.0393,0.0439,
江戸川 (Edogawa),2021-05-11,12:01～13:00,0.0463,0.0408,0.0440,
江戸川 (Edogawa),2021-05-11,11:01～12:00,0.0474,0.0412,0.0441,
江戸川 (Edogawa),2021-05-11,10:01～11:00,0.0476,0.0410,0.0442,
江戸川 (Edogawa),2021-05-11,09:01～10:00,0.0475,0.0410,0.0440,
江戸川 (Edogawa),2021-05-11,08:01～09:00,0.0493,0.0403,0.0442,
江戸川 (Edogawa),2021-05-11,07:01～08:00,0.0474,0.0414,0.0444,
江戸川 (Edogawa),2021-05-11,06:01～07:00,0.0464,0.0406,0.0439,
江戸川 (Edogawa),2021-05-11,05:01～06:00,0.0472,0.0406,0.0439,
江戸川 (Edogawa),2021-05-11,04:01～05:00,0.0477,0.0413,0.0443,
江戸川 (Edogawa),2021-05-11,03:01～04:00,0.0474,0.0419,0.0445,
江戸川 (Edogawa),2021-05-11,02:01～03:00,0.0473,0.0402,0.0444,
江戸川 (Edogawa),2021-05-11,01:01～02:00,0.0468,0.0417,0.0443,
江戸川 (Edogawa),2021-05-11,00:01～01:00,0.0479,0.0408,0.0442,
江戸川 (Edogawa),2021-05-10,23:01～24:00,0.0477,0.0417,0.0442,
江戸川 (Edogawa),2021-05-10,22:01～23:00,0.0471,0.0405,0.0439,
江戸川 (Edogawa),2021-05-10,21:01～22:00,0.0473,0.0412,0.0438,
江戸川 (Edogawa),2021-05-10,20:01～21:00,0.0477,0.0410,0.0441,
江戸川 (Edogawa),2021-05-10,19:01～20:00,0.0471,0.0407,0.0440,
江戸川 (Edogawa),2021-05-10,18:01～19:00,0.0473,0.0406,0.0440,
江戸川 (Edogawa),2021-05-10,17:01～18:00,0.0466,0.0404,0.0436,
江戸川 (Edogawa),2021-05-10,16:01～17:00,0.0473,0.0409,0.0441,
江戸川 (Edogawa),2021-05-10,15:01～16:00,0.0476,0.0415,0.0441,
江戸川 (Edogawa),2021-05-10,14:01～15:00,0.0474,0.0418,0.0439,
江戸川 (Edogawa),2021-05-10,13:01～14:00,0.0478,0.0408,0.0441,
江戸川 (Edogawa),2021-05-10,12:01～13:00,0.0471,0.0414,0.0441,
江戸川 (Edogawa),2021-05-10,11:01～12:00,0.0476,0.0412,0.0439,
江戸川 (Edogawa),2021-05-10,10:01～11:00,0.0471,0.0418,0.0439,
江戸川 (Edogawa),2021-05-10,09:01～10:00,0.0468,0.0418,0.0441,
江戸川 (Edogawa),2021-05-10,08:01～09:00,0.0481,0.0403,0.0440,
江戸川 (Edogawa),2021-05-10,07:01～08:00,0.0476,0.0407,0.0441,
江戸川 (Edogawa),2021-05-10,06:01～07:00,0.0468,0.0394,0.0433,
江戸川 (Edogawa),2021-05-10,05:01～06:00,0.0481,0.0401,0.0436,
江戸川 (Edogawa),2021-05-10,04:01～05:00,0.0463,0.0406,0.0436,
江戸川 (Edogawa),2021-05-10,03:01～04:00,0.0469,0.0400,0.0434,
江戸川 (Edogawa),2021-05-10,02:01～03:00,0.0461,0.0407,0.0438,
江戸川 (Edogawa),2021-05-10,01:01～02:00,0.0463,0.0409,0.0439,
江戸川 (Edogawa),2021-05-10,00:01～01:00,0.0474,0.0409,0.0441,
